| time (UTC) | temp C | wind direction | speed KPH | gust KPH | rain 1hr cm | rain 24hr cm | rain mn cm | humidity % | barometer mb |
| 20260901061504 | 16 | 285 | 1.6 | 4.8 | 0.00 | 0.03 | 0.03 | 91 | 1006.6 |
| 20260901054504 | 16 | 276 | 3.2 | 4.8 | 0.00 | 0.03 | 0.03 | 91 | 1006.6 |
| 20260901051504 | 16 | 250 | 1.6 | 4.8 | 0.00 | 0.03 | 0.03 | 92 | 1006.5 |
| 20260901041505 | 16 | 201 | 1.6 | 8.0 | 0.00 | 0.03 | 0.03 | 92 | 1006.5 |
| 20260901040004 | 16 | 210 | 3.2 | 9.7 | 0.00 | 0.03 | 0.03 | 92 | 1006.6 |
| 20260901033005 | 16 | 241 | 4.8 | 12.9 | 0.00 | 0.03 | 0.03 | 91 | 1006.6 |
| 20260901031503 | 16 | 226 | 3.2 | 9.7 | 0.00 | 0.03 | 0.03 | 91 | 1006.4 |
| 20260901024504 | 16 | 218 | 3.2 | 9.7 | 0.00 | 0.03 | 0.03 | 91 | 1006.3 |
| 20260901014504 | 16 | 207 | 3.2 | 11.3 | 0.03 | 0.03 | 0.03 | 91 | 1006.3 |
| 20260901011503 | 16 | 204 | 3.2 | 4.8 | 0.00 | 0.00 | 0.00 | 91 | 1006.3 |
| 20260901001503 | 17 | 192 | 1.6 | 9.7 | 0.00 | 0.00 | 0.00 | 91 | 1006.1 |
| 20260901000004 | 17 | 229 | 3.2 | 8.0 | 0.00 | 0.00 | 0.00 | 91 | 1006.1 |
| 20260831233003 | 17 | 224 | 3.2 | 11.3 | 0.00 | 0.00 | 0.00 | 92 | 1006.1 |
| 20260831231503 | 17 | 214 | 3.2 | 11.3 | 0.00 | 0.00 | 0.00 | 94 | 1006.4 |
| 20260831214504 | 16 | 162 | 3.2 | 11.3 | 0.00 | 0.00 | 0.00 | 93 | 1006.4 |
| 20260831211503 | 17 | 162 | 4.8 | 12.9 | 0.00 | 0.00 | 0.00 | 93 | 1006.3 |
| 20260831210005 | 17 | 162 | 4.8 | 11.3 | 0.00 | 0.00 | 0.00 | 93 | 1006.5 |
| 20260831201504 | 17 | 176 | 3.2 | 11.3 | 0.00 | 0.00 | 0.00 | 92 | 1006.5 |
| 20260831193004 | 17 | 151 | 4.8 | 12.9 | 0.00 | 0.00 | 0.00 | 93 | 1006.5 |
| 20260831191504 | 17 | 143 | 1.6 | 9.7 | 0.00 | 0.00 | 0.00 | 93 | 1006.4 |
| 20260831190004 | 17 | 173 | 3.2 | 11.3 | 0.00 | 0.00 | 0.00 | 93 | 1006.4 |
| 20260831181503 | 17 | 172 | 1.6 | 8.0 | 0.00 | 0.00 | 0.00 | 92 | 1006.4 |
| 20260831180004 | 17 | 180 | 1.6 | 4.8 | 0.00 | 0.00 | 0.00 | 91 | 1006.4 |
| 20260831174504 | 17 | 180 | 1.6 | 8.0 | 0.00 | 0.00 | 0.00 | 91 | 1006.4 |
| 20260831173005 | 18 | 189 | 3.2 | 14.5 | 0.00 | 0.00 | 0.00 | 90 | 1006.4 |
| 20260831171504 | 18 | 219 | 4.8 | 12.9 | 0.00 | 0.00 | 0.00 | 89 | 1006.4 |
| 20260831164504 | 18 | 162 | 3.2 | 12.9 | 0.00 | 0.00 | 0.00 | 86 | 1006.5 |
| 20260831160004 | 18 | 180 | 4.8 | 16.1 | 0.00 | 0.03 | 0.00 | 85 | 1006.7 |
| 20260831141504 | 19 | 219 | 4.8 | 12.9 | 0.00 | 0.18 | 0.00 | 81 | 1007.4 |
| 20260831140005 | 19 | 188 | 3.2 | 19.3 | 0.00 | 0.18 | 0.00 | 81 | 1007.6 |
| 20260831134505 | 18 | 181 | 4.8 | 19.3 | 0.00 | 0.18 | 0.00 | 79 | 1007.4 |
| 20260831133005 | 18 | 175 | 3.2 | 14.5 | 0.00 | 0.23 | 0.00 | 79 | 1007.4 |
| 20260831131504 | 18 | 197 | 4.8 | 14.5 | 0.00 | 0.23 | 0.00 | 79 | 1007.6 |
| 20260831121504 | 20 | 207 | 4.8 | 14.5 | 0.00 | 0.23 | 0.00 | 76 | 1007.4 |
| 20260831111504 | 20 | 205 | 3.2 | 12.9 | 0.00 | 0.23 | 0.00 | 77 | 1007.3 |
| 20260831104504 | 20 | 214 | 4.8 | 19.3 | 0.00 | 0.23 | 0.00 | 78 | 1007.6 |
| 20260831103004 | 20 | 213 | 8.0 | 19.3 | 0.00 | 0.23 | 0.00 | 77 | 1008.0 |
| 20260831101505 | 19 | 200 | 4.8 | 16.1 | 0.00 | 0.25 | 0.00 | 80 | 1008.0 |
| 20260831100004 | 19 | 208 | 4.8 | 14.5 | 0.00 | 0.25 | 0.00 | 80 | 1008.0 |
| 20260831091504 | 18 | 204 | 4.8 | 19.3 | 0.00 | 0.25 | 0.00 | 81 | 1007.8 |
| 20260831084504 | 18 | 204 | 4.8 | 11.3 | 0.00 | 0.25 | 0.00 | 83 | 1007.5 |
| 20260831083006 | 18 | 219 | 3.2 | 14.5 | 0.00 | 0.25 | 0.00 | 83 | 1007.5 |
| 20260831080004 | 18 | 203 | 3.2 | 11.3 | 0.00 | 0.25 | 0.00 | 83 | 1007.5 |
| 20260831071505 | 17 | 249 | 3.2 | 8.0 | 0.00 | 0.25 | 0.00 | 86 | 1007.6 |
| 20260831070003 | 17 | 231 | 3.2 | 9.7 | 0.00 | 0.25 | 0.00 | 87 | 1007.6 |